When you browse on this site, cookies collect data to enhance your experience and personalize the content and advertising you see.
Visit our Privacy Policy to learn more. By continuing to use the site, you agree to this use of cookies and data.
  • In Schweiz
  • Länderverzeichnis
  • Für 7 Tage
  • Wassertemperatur
  • Wetterkarte
  • Widgets
  • user-avatar
    Anmelden

    Stündliche Wetter Tovsten'ke

    Heute, 25 August, Sonntag

    Zeit Temperatur Niederschläge Wind Luftdruck Luftfeuchtigkeit
    00:00 +18°C° 0 mm 3 m/S 743 mmHg 74%
    01:00 +18°C° 0 mm 3 m/S 743 mmHg 76%
    02:00 +17°C° 0 mm 2 m/S 743 mmHg 77%
    03:00 +17°C° 0 mm 2 m/S 743 mmHg 78%
    04:00 +17°C° 0 mm 2 m/S 743 mmHg 78%
    05:00 +16°C° 0 mm 2 m/S 742 mmHg 79%
    06:00 +18°C° 0 mm 2 m/S 743 mmHg 74%
    07:00 +19°C° 0 mm 3 m/S 743 mmHg 69%
    08:00 +20°C° 0 mm 3 m/S 743 mmHg 65%
    09:00 +22°C° 0 mm 3 m/S 743 mmHg 60%
    10:00 +25°C° 0 mm 3 m/S 743 mmHg 55%
    11:00 +27°C° 0 mm 3 m/S 743 mmHg 51%
    12:00 +28°C° 0 mm 3 m/S 743 mmHg 49%
    13:00 +28°C° 0 mm 3 m/S 743 mmHg 48%
    14:00 +29°C° 0 mm 3 m/S 743 mmHg 46%
    15:00 +29°C° 0 mm 4 m/S 742 mmHg 48%
    16:00 +29°C° 0 mm 4 m/S 742 mmHg 49%
    17:00 +28°C° 0 mm 4 m/S 742 mmHg 51%
    18:00 +26°C° 0.1 mm 4 m/S 742 mmHg 56%
    19:00 +23°C° 0.1 mm 4 m/S 742 mmHg 60%
    20:00 +21°C° 0.1 mm 5 m/S 742 mmHg 65%
    21:00 +21°C° 0.1 mm 4 m/S 742 mmHg 65%
    22:00 +20°C° 0.1 mm 4 m/S 742 mmHg 65%
    23:00 +19°C° 0.1 mm 4 m/S 743 mmHg 64%

    Morgen, 26 August, Montag

    Zeit Temperatur Niederschläge Wind Luftdruck Luftfeuchtigkeit
    00:00 +19°C° 0 mm 3 m/S 743 mmHg 64%
    01:00 +18°C° 0 mm 3 m/S 743 mmHg 63%
    02:00 +18°C° 0 mm 2 m/S 743 mmHg 62%
    03:00 +17°C° 0 mm 3 m/S 743 mmHg 61%
    04:00 +17°C° 0 mm 3 m/S 742 mmHg 60%
    05:00 +17°C° 0 mm 3 m/S 742 mmHg 60%
    06:00 +18°C° 0 mm 3 m/S 742 mmHg 58%
    07:00 +19°C° 0 mm 3 m/S 742 mmHg 56%
    08:00 +21°C° 0 mm 4 m/S 742 mmHg 54%
    09:00 +23°C° 0 mm 4 m/S 743 mmHg 50%
    10:00 +25°C° 0 mm 4 m/S 743 mmHg 46%
    11:00 +27°C° 0 mm 4 m/S 743 mmHg 42%
    12:00 +28°C° 0 mm 4 m/S 742 mmHg 41%
    13:00 +29°C° 0 mm 4 m/S 742 mmHg 40%
    14:00 +30°C° 0 mm 4 m/S 742 mmHg 38%
    15:00 +29°C° 0 mm 4 m/S 742 mmHg 40%
    16:00 +29°C° 0 mm 4 m/S 741 mmHg 42%
    17:00 +29°C° 0 mm 4 m/S 741 mmHg 43%
    18:00 +27°C° 0 mm 4 m/S 741 mmHg 46%
    19:00 +25°C° 0 mm 3 m/S 741 mmHg 49%
    20:00 +22°C° 0 mm 3 m/S 741 mmHg 52%
    21:00 +21°C° 0 mm 3 m/S 741 mmHg 53%
    22:00 +20°C° 0 mm 3 m/S 741 mmHg 55%
    23:00 +19°C° 0 mm 3 m/S 741 mmHg 57%

    übermorgen, 27 August, Dienstag

    Zeit Temperatur Niederschläge Wind Luftdruck Luftfeuchtigkeit
    00:00 +19°C° 0 mm 3 m/S 741 mmHg 60%
    01:00 +18°C° 0 mm 3 m/S 741 mmHg 63%
    02:00 +18°C° 0 mm 3 m/S 741 mmHg 66%
    03:00 +17°C° 0 mm 3 m/S 741 mmHg 69%
    04:00 +17°C° 0 mm 2 m/S 741 mmHg 72%
    05:00 +16°C° 0 mm 2 m/S 741 mmHg 74%
    06:00 +18°C° 0 mm 2 m/S 741 mmHg 70%
    07:00 +19°C° 0 mm 3 m/S 741 mmHg 66%
    08:00 +21°C° 0 mm 3 m/S 741 mmHg 61%
    09:00 +24°C° 0 mm 3 m/S 741 mmHg 55%
    10:00 +26°C° 0 mm 3 m/S 742 mmHg 48%
    11:00 +28°C° 0 mm 3 m/S 742 mmHg 41%
    12:00 +29°C° 0 mm 3 m/S 742 mmHg 38%
    13:00 +30°C° 0 mm 3 m/S 741 mmHg 34%
    14:00 +31°C° 0 mm 2 m/S 741 mmHg 31%
    15:00 +31°C° 0 mm 2 m/S 741 mmHg 33%
    16:00 +30°C° 0 mm 2 m/S 741 mmHg 35%
    17:00 +30°C° 0 mm 2 m/S 741 mmHg 37%
    18:00 +28°C° 0 mm 3 m/S 741 mmHg 43%
    19:00 +25°C° 0 mm 3 m/S 741 mmHg 48%
    20:00 +22°C° 0 mm 3 m/S 741 mmHg 54%
    21:00 +21°C° 0 mm 3 m/S 741 mmHg 57%
    22:00 +21°C° 0 mm 3 m/S 741 mmHg 60%
    23:00 +20°C° 0 mm 3 m/S 741 mmHg 64%

    28 August, Mittwoch

    Zeit Temperatur Niederschläge Wind Luftdruck Luftfeuchtigkeit
    00:00 +19°C° 0 mm 3 m/S 741 mmHg 65%
    01:00 +18°C° 0 mm 2 m/S 741 mmHg 67%
    02:00 +18°C° 0 mm 2 m/S 741 mmHg 69%
    03:00 +17°C° 0 mm 2 m/S 741 mmHg 69%
    04:00 +17°C° 0 mm 2 m/S 741 mmHg 69%
    05:00 +17°C° 0 mm 2 m/S 741 mmHg 70%
    06:00 +18°C° 0 mm 3 m/S 741 mmHg 66%
    07:00 +20°C° 0 mm 3 m/S 741 mmHg 63%
    08:00 +21°C° 0 mm 3 m/S 741 mmHg 59%
    09:00 +24°C° 0 mm 3 m/S 741 mmHg 53%
    10:00 +26°C° 0 mm 4 m/S 741 mmHg 48%
    11:00 +28°C° 0 mm 4 m/S 741 mmHg 42%
    12:00 +29°C° 0 mm 3 m/S 741 mmHg 40%
    13:00 +29°C° 0 mm 3 m/S 741 mmHg 38%
    14:00 +30°C° 0 mm 3 m/S 740 mmHg 35%
    15:00 +29°C° 0 mm 3 m/S 740 mmHg 37%
    16:00 +29°C° 0 mm 3 m/S 740 mmHg 39%
    17:00 +28°C° 0 mm 4 m/S 740 mmHg 41%
    18:00 +26°C° 0 mm 4 m/S 740 mmHg 46%
    19:00 +23°C° 0 mm 4 m/S 739 mmHg 51%
    20:00 +21°C° 0 mm 4 m/S 739 mmHg 57%
    21:00 +20°C° 0 mm 4 m/S 739 mmHg 61%
    22:00 +20°C° 0 mm 4 m/S 740 mmHg 65%
    23:00 +19°C° 0 mm 4 m/S 740 mmHg 70%

    29 August, Donnerstag

    Zeit Temperatur Niederschläge Wind Luftdruck Luftfeuchtigkeit
    00:00 +18°C° 0 mm 4 m/S 740 mmHg 71%
    01:00 +18°C° 0 mm 3 m/S 739 mmHg 73%
    02:00 +17°C° 0 mm 3 m/S 739 mmHg 74%
    03:00 +17°C° 0 mm 3 m/S 739 mmHg 74%
    04:00 +16°C° 0 mm 3 m/S 739 mmHg 73%
    05:00 +16°C° 0 mm 3 m/S 739 mmHg 73%
    06:00 +17°C° 0 mm 4 m/S 739 mmHg 69%
    07:00 +18°C° 0 mm 4 m/S 739 mmHg 66%
    08:00 +20°C° 0 mm 4 m/S 739 mmHg 62%
    09:00 +22°C° 0 mm 4 m/S 739 mmHg 57%
    10:00 +23°C° 0 mm 5 m/S 740 mmHg 53%
    11:00 +26°C° 0 mm 5 m/S 740 mmHg 48%
    12:00 +27°C° 0 mm 5 m/S 739 mmHg 46%
    13:00 +28°C° 0 mm 5 m/S 739 mmHg 43%
    14:00 +28°C° 0 mm 4 m/S 739 mmHg 41%
    15:00 +28°C° 0 mm 5 m/S 739 mmHg 41%
    16:00 +27°C° 0 mm 5 m/S 739 mmHg 42%
    17:00 +27°C° 0 mm 5 m/S 739 mmHg 43%
    18:00 +25°C° 0 mm 5 m/S 739 mmHg 46%
    19:00 +22°C° 0 mm 5 m/S 739 mmHg 49%
    20:00 +20°C° 0 mm 5 m/S 739 mmHg 52%
    21:00 +19°C° 0 mm 5 m/S 739 mmHg 51%
    22:00 +18°C° 0 mm 4 m/S 739 mmHg 50%
    23:00 +17°C° 0 mm 4 m/S 740 mmHg 49%

    30 August, Freitag

    Zeit Temperatur Niederschläge Wind Luftdruck Luftfeuchtigkeit
    00:00 +15°C° 0 mm 4 m/S 740 mmHg 48%
    01:00 +14°C° 0 mm 4 m/S 740 mmHg 47%
    02:00 +14°C° 0 mm 4 m/S 740 mmHg 46%
    03:00 +13°C° 0 mm 4 m/S 740 mmHg 46%
    04:00 +13°C° 0 mm 4 m/S 740 mmHg 45%
    05:00 +13°C° 0 mm 4 m/S 740 mmHg 45%
    06:00 +14°C° 0 mm 4 m/S 740 mmHg 45%
    07:00 +15°C° 0 mm 5 m/S 740 mmHg 44%
    08:00 +16°C° 0 mm 5 m/S 740 mmHg 44%
    09:00 +19°C° 0 mm 5 m/S 740 mmHg 41%
    10:00 +21°C° 0 mm 5 m/S 740 mmHg 39%
    11:00 +23°C° 0 mm 5 m/S 741 mmHg 36%
    12:00 +25°C° 0 mm 5 m/S 740 mmHg 35%
    13:00 +25°C° 0 mm 5 m/S 740 mmHg 33%
    14:00 +26°C° 0 mm 5 m/S 740 mmHg 31%
    15:00 +26°C° 0 mm 4 m/S 740 mmHg 32%
    16:00 +26°C° 0 mm 4 m/S 740 mmHg 33%
    17:00 +25°C° 0 mm 4 m/S 739 mmHg 33%
    18:00 +22°C° 0 mm 4 m/S 739 mmHg 36%
    19:00 +20°C° 0 mm 4 m/S 739 mmHg 39%
    20:00 +18°C° 0 mm 3 m/S 739 mmHg 42%
    21:00 +17°C° 0 mm 3 m/S 740 mmHg 42%
    22:00 +15°C° 0 mm 4 m/S 740 mmHg 42%
    23:00 +14°C° 0 mm 4 m/S 740 mmHg 42%
    Mehr zeigen